This demonstration page uses our WeatherBlox Daily Observations layout. Learn more.

Left ArrowRight Arrow

Hourly Observations for April 18, 2022

Temp ( °F °C ) Dew Point ( °F °C ) Humidity (%) Winds ( mph kmh ) Pressure ( in mb ) Visibility ( mi km ) Precip ( " mm )
12:15 am 00:15 Clear 44 6.4 29 -1.8 56 56 NNE 15 24 30.28 1025 10 16 0.00 0.00
12:35 am 00:35 Partly Cloudy 44 6.5 25 -3.7 48 48 NNE 15 24 30.30 1026 10 16 0.00 0.00
12:55 am 00:55 Partly Cloudy 43 6.1 20 -6.5 40 40 NNE 14 22 30.31 1026 10 16 0.00 0.00
1:15 am 01:15 Partly Cloudy 43 6 19 -7.5 38 38 N 16 26 30.33 1027 10 16 0.00 0.00
1:35 am 01:35 Cloudy 43 6 18 -7.9 36 36 NNE 18 30 30.33 1027 10 16 0.00 0.00
1:55 am 01:55 Mostly Cloudy 42 5.3 17 -8.1 38 38 NNE 15 24 30.35 1028 10 16 0.00 0.00
2:15 am 02:15 Partly Cloudy 40 4.5 18 -7.8 41 41 NNE 13 20 30.37 1029 10 16 0.00 0.00
2:35 am 02:35 Mostly Cloudy 40 4.3 19 -7.3 43 43 N 10 17 30.38 1029 10 16 0.00 0.00
2:55 am 02:55 Partly Cloudy 38 3.5 18 -7.7 44 44 NNE 12 19 30.38 1029 10 16 0.00 0.00
3:15 am 03:15 Partly Cloudy 37 2.8 17 -8.2 45 45 N 12 19 30.39 1029 10 16 0.00 0.00
3:35 am 03:35 Clear 35 1.9 18 -7.9 49 49 N 10 17 30.40 1029 10 16 0.00 0.00
3:55 am 03:55 Clear 33 0.6 18 -7.6 55 55 N 6 9 30.42 1030 10 16 0.00 0.00
4:15 am 04:15 Clear 32 0.2 18 -7.6 56 56 N 9 15 30.42 1030 10 16 0.00 0.00
4:35 am 04:35 Clear 32 0.2 17 -8.1 54 54 N 10 17 30.42 1030 10 16 0.00 0.00
4:55 am 04:55 Clear 33 0.4 18 -8 54 54 N 12 19 30.43 1031 10 16 0.00 0.00
5:15 am 05:15 Partly Cloudy 33 0.6 18 -7.8 54 54 N 12 19 30.42 1030 10 16 0.00 0.00
5:35 am 05:35 Partly Cloudy 33 0.6 18 -7.7 54 54 N 12 19 30.43 1030 10 16 0.00 0.00
5:55 am 05:55 Clear 32 0.1 18 -7.7 56 56 N 10 17 30.45 1031 10 16 0.00 0.00
6:15 am 06:15 Clear 32 0 18 -7.8 56 56 N 10 17 30.45 1031 10 16 0.00 0.00
6:35 am 06:35 Clear 31 -0.8 18 -8 59 59 N 8 13 30.46 1032 10 16 0.00 0.00
6:55 am 06:55 Sunny 30 -0.9 18 -7.7 60 60 N 10 17 30.47 1032 10 16 0.00 0.00
7:15 am 07:15 Sunny 30 -1.1 18 -7.7 61 61 N 7 11 30.48 1032 10 16 0.00 0.00
7:35 am 07:35 Sunny 31 -0.6 18 -7.8 59 59 N 8 13 30.50 1033 10 16 0.00 0.00
7:55 am 07:55 Sunny 32 0 17 -8.5 53 53 N 13 20 30.50 1033 10 16 0.00 0.00
8:15 am 08:15 Mostly Cloudy 32 0.2 17 -8.5 52 52 NNW 8 13 30.51 1033 10 16 0.00 0.00
8:35 am 08:35 Cloudy 33 0.7 17 -8.2 52 52 NNW 9 15 30.51 1033 10 16 0.00 0.00
8:55 am 08:55 Cloudy 35 1.4 17 -8.5 48 48 NNW 9 15 30.51 1033 10 16 0.00 0.00
9:15 am 09:15 Cloudy 37 2.5 14 -10.1 39 39 NNW 8 13 30.51 1033 10 16 0.00 0.00
9:35 am 09:35 Cloudy 38 3.1 12 -11.2 34 34 NNE 12 19 30.51 1033 10 16 0.00 0.00
9:55 am 09:55 Cloudy 38 3.5 12 -11 34 34 NNE 5 7 30.50 1033 10 16 0.00 0.00
10:15 am 10:15 Cloudy 38 3.6 11 -11.5 33 33 N 3 6 30.51 1033 10 16 0.00 0.00
10:35 am 10:35 Mostly Cloudy 39 4.1 11 -11.5 31 31 Calm 30.51 1033 10 16 0.00 0.00
10:55 am 10:55 Sunny 41 5 11 -11.8 29 29 N 3 6 30.50 1033 10 16 0.00 0.00
11:15 am 11:15 Mostly Cloudy 42 5.3 11 -11.9 28 28 NW 7 11 30.50 1033 10 16 0.00 0.00
11:35 am 11:35 Partly Cloudy 43 6.2 10 -12 26 26 NW 9 15 30.48 1032 10 16 0.00 0.00
11:55 am 11:55 Mostly Cloudy 44 6.4 10 -12.5 25 25 Calm 30.48 1032 10 16 0.00 0.00
12:15 pm 12:15 Cloudy 44 6.5 10 -12.4 25 25 WNW 6 9 30.47 1032 10 16 0.00 0.00
12:35 pm 12:35 Cloudy 44 6.9 10 -12.3 24 24 WNW 5 7 30.46 1032 10 16 0.00 0.00
12:55 pm 12:55 Cloudy 47 8.3 10 -12 23 23 WNW 8 13 30.44 1031 10 16 0.00 0.00
1:15 pm 13:15 Mostly Cloudy 47 8.2 9 -12.8 21 21 NE 3 6 30.43 1030 10 16 0.00 0.00
1:35 pm 13:35 Sunny 48 9.1 8 -13.2 19 19 NNE 5 7 30.41 1030 10 16 0.00 0.00
1:55 pm 13:55 Sunny 50 9.8 9 -13 19 19 NNW 7 11 30.39 1029 10 16 0.00 0.00
2:15 pm 14:15 Sunny 49 9.7 9 -13 19 19 Calm 30.39 1029 10 16 0.00 0.00
2:35 pm 14:35 Sunny 50 10.1 9 -13 18 18 Calm 30.37 1029 10 16 0.00 0.00
2:55 pm 14:55 Sunny 52 11 9 -12.6 18 18 NNE 5 7 30.35 1028 10 16 0.00 0.00
3:15 pm 15:15 Sunny 53 11.5 9 -13 17 17 NW 3 6 30.33 1027 10 16 0.00 0.00
3:35 pm 15:35 Sunny 54 12.4 10 -12.5 16 16 NNW 12 19 30.32 1027 10 16 0.00 0.00
3:55 pm 15:55 Sunny 54 12.4 10 -12.2 17 17 E 3 6 30.30 1026 10 16 0.00 0.00
4:15 pm 16:15 Sunny 55 12.6 10 -12 17 17 NW 8 13 30.30 1026 10 16 0.00 0.00
4:35 pm 16:35 Sunny 55 12.7 11 -11.9 17 17 NNW 5 7 30.29 1026 10 16 0.00 0.00
4:55 pm 16:55 Sunny 55 13 11 -11.7 17 17 NNW 3 6 30.28 1025 10 16 0.00 0.00
5:15 pm 17:15 Sunny 55 12.9 11 -11.4 17 17 WNW 3 6 30.28 1025 10 16 0.00 0.00
5:35 pm 17:35 Sunny 55 12.8 11 -11.5 17 17 Calm 30.27 1025 10 16 0.00 0.00
5:55 pm 17:55 Sunny 55 12.5 11 -11.6 18 18 Calm 30.27 1025 10 16 0.00 0.00
6:15 pm 18:15 Sunny 55 12.7 11 -11.7 17 17 Calm 30.26 1025 10 16 0.00 0.00
6:35 pm 18:35 Sunny 55 12.6 11 -11.7 17 17 Calm 30.26 1025 10 16 0.00 0.00
6:55 pm 18:55 Sunny 55 12.6 10 -12 17 17 Calm 30.25 1024 10 16 0.00 0.00
7:15 pm 19:15 Sunny 55 12.5 10 -12 17 17 Calm 30.25 1024 10 16 0.00 0.00
7:35 pm 19:35 Sunny 54 12.3 11 -11.9 17 17 Calm 30.25 1024 10 16 0.00 0.00
7:55 pm 19:55 Sunny 53 11.4 10 -12 18 18 SE 5 7 30.25 1024 10 16 0.00 0.00
8:15 pm 20:15 Sunny 50 9.8 10 -12.3 20 20 S 6 9 30.26 1025 10 16 0.00 0.00
8:35 pm 20:35 Clear 48 8.7 10 -12 22 22 SSE 8 13 30.27 1025 10 16 0.00 0.00
8:55 pm 20:55 Clear 46 7.6 10 -12 24 24 SSE 7 11 30.29 1026 10 16 0.00 0.00
9:15 pm 21:15 Clear 41 5.2 10 -12.3 27 27 S 8 13 30.32 1027 10 16 0.00 0.00
9:35 pm 21:35 Clear 39 4.1 10 -12.5 29 29 SSE 8 13 30.33 1027 10 16 0.00 0.00
9:55 pm 21:55 Clear 39 4 10 -12 30 30 SSE 8 13 30.32 1027 10 16 0.00 0.00
10:15 pm 22:15 Clear 37 2.7 10 -12.5 32 32 SE 8 13 30.33 1027 10 16 0.00 0.00
10:35 pm 22:35 Clear 37 3 10 -12.3 32 32 SE 7 11 30.33 1027 10 16 0.00 0.00
10:55 pm 22:55 Clear 37 2.8 10 -12.1 33 33 SSE 8 13 30.33 1027 10 16 0.00 0.00
11:15 pm 23:15 Clear 37 2.7 11 -11.7 34 34 SSE 8 13 30.32 1027 10 16 0.00 0.00
11:35 pm 23:35 Clear 35 1.6 11 -11.8 37 37 SSE 7 11 30.32 1027 10 16 0.00 0.00
11:55 pm 23:55 Clear 35 1.4 11 -11.8 37 37 SSE 8 13 30.32 1027 10 16 0.00 0.00

Powered by AerisWeather